[[{"header":{"parameterUnit":"m.s-1","parameterCategory":1,"la1":30.2991,"la2":30.254,"lo1":-89.0895,"lo2":-89.0444,"dy":0.0017,"dx":0.0017,"nx":28,"ny":28,"refTime":"2023-07-18T09:00:00:Z","depth":0,"parameterNumber":2,"parameterNumberName":"U-component_of_WINDS"},"data":[0,0,0,0,0,0,0,0,0,0,0,0,0,0,0,0,0,0,0,0,0,0,0,0,0,0,0,0,0,0,0,0,0,0,0,0,0,0,0,0,0,0,0,0,0,0,0,0,0,0,0,0,0,0,0,0,0,0,2.7544,2.7544,0,2.7529,2.7529,2.7529,2.7421,2.7418,2.7415,2.7413,2.7402,2.7404,2.7406,0,0,0,0,0,0,0,0,0,0,0,0,0,2.7481,2.7483,2.7544,2.7544,2.7544,2.7529,2.7529,2.7529,2.7421,2.7418,2.7415,2.7412,2.7401,2.7403,2.7406,0,0,0,0,0,0,0,0,0,0,0,0,0,2.7492,2.7483,2.7544,2.7488,2.7483,2.7529,2.7529,2.7529,2.7422,2.7418,2.7414,2.741,2.74,2.7403,2.7406,2.7506,0,0,2.7416,2.7418,0,0,0,0,0,0,0,0,2.7491,2.7494,2.7497,2.7492,2.7487,2.7473,2.7502,2.7521,2.7423,2.7445,2.7413,2.7408,2.7429,2.7429,2.7435,2.7506,2.7505,2.7417,2.7419,2.742,2.7421,0,0,0,0,0,0,0,2.7491,2.7494,2.7538,2.7497,2.7491,2.7464,2.7461,2.7506,2.746,2.7443,2.7435,2.7435,2.7425,2.7433,2.7434,2.7505,2.7417,2.742,2.7422,2.7423,2.7652,2.7656,0,0,0,0,0,0,2.7497,2.7494,2.7539,2.7538,2.7479,2.7469,2.7466,2.7481,2.7459,2.7452,2.7438,2.743,2.7429,2.7431,2.7434,2.7545,2.742,2.7423,2.7425,2.7648,2.7653,2.7657,0,0,0,0,0,0,2.7497,2.7502,2.754,2.7514,2.7517,2.7474,2.7493,2.7483,2.749,2.7455,2.7447,2.7454,2.7426,2.7429,2.7488,2.7544,2.7425,2.7428,2.7643,2.765,2.7655,2.7773,0,0,0,0,0,0,2.7495,2.7503,2.754,2.7516,2.7518,2.7594,2.7496,2.7486,2.7496,2.7485,2.7468,2.7461,2.7423,2.7483,2.7491,2.7546,2.743,2.7638,2.7646,2.7653,2.7764,2.7782,2.7798,0,0,0,0,0,2.7493,2.7576,2.7543,2.7549,2.7564,2.7597,2.7599,2.7552,2.7501,2.7538,2.7514,2.7462,2.7537,2.749,2.7498,2.7555,2.7634,2.7644,2.7653,2.7756,2.7779,2.7798,0,0,0,0,0,0,2.7611,2.7572,2.7535,2.7612,2.7608,2.7579,2.7625,2.7579,2.7591,2.7581,2.7523,2.752,2.7587,2.7577,2.7526,2.7648,2.7576,2.7587,2.7652,2.7673,2.769,2.769,2.7433,0,0,0,0,0,2.7645,2.7675,2.7639,2.7711,2.7711,2.7668,2.7681,2.7645,2.764,2.7638,2.762,2.7618,2.764,2.7656,2.7676,2.7762,2.7755,2.7805,2.7822,2.7836,2.7846,2.7887,2.7908,2.7688,2.7688,2.7688,0,0,2.7718,2.77,2.7723,2.7734,2.7727,2.7758,2.7668,2.7706,2.7728,2.7645,2.7697,2.7684,2.7677,2.7749,2.778,2.7743,2.7905,2.7848,2.786,2.7862,2.7899,2.792,2.7938,2.7694,2.7693,2.7692,0,0,2.7865,2.7856,2.7911,2.7906,2.7895,2.7866,2.788,2.7856,2.7843,2.7895,2.7831,2.7858,2.7899,2.7896,2.79,2.8042,2.7992,2.805,2.8139,2.818,2.8197,2.8212,2.826,2.8278,2.806,2.8061,2.8061,0,2.7956,2.8,2.7947,2.7987,2.7993,2.7916,2.7972,2.7969,2.7967,2.7973,2.7931,2.7978,2.7969,2.8037,2.8071,2.8078,2.809,2.8051,2.8199,2.8213,2.8227,2.8271,2.829,2.8067,2.8067,2.8066,2.8065,0,2.8111,2.8142,2.8189,2.8185,2.8196,2.8245,2.8198,2.8216,2.8179,2.8154,2.8206,2.8192,2.8204,2.8219,2.8184,2.8281,2.8258,2.8209,2.8135,2.8255,2.8296,2.8313,2.8077,2.8075,2.8073,2.8071,0,0,2.8332,2.8295,2.8313,2.8309,2.829,2.8314,2.8358,2.8368,2.8383,2.8384,2.8418,2.8453,2.8406,2.8411,2.8375,2.8411,2.852,2.8356,2.8355,2.8385,2.8622,2.8657,2.8678,2.8487,2.8491,2.8493,2.8621,0,2.847,2.8541,2.8493,2.8573,2.8599,2.8525,2.8563,2.8556,2.8533,2.8553,2.8528,2.8552,2.849,2.8491,2.8524,2.85,2.8566,2.849,2.8517,2.8519,2.8519,2.87,2.8738,2.8859,2.8637,2.864,2.8642,0,2.8641,2.8645,2.8726,2.8698,2.8708,2.8743,2.8746,2.8766,2.8756,2.8737,2.874,2.8694,2.8734,2.8662,2.8716,2.8665,2.8674,2.8663,2.8667,2.8666,2.8586,2.8701,2.8897,2.8915,2.8667,2.8665,2.8663,0,2.879,2.8817,2.8867,2.8866,2.8836,2.8862,2.8851,2.8836,2.8844,2.8848,2.8852,2.8863,2.8867,2.8876,2.8833,2.8785,2.8892,2.8817,2.8875,2.8876,2.89,2.8898,2.9098,2.891,2.891,2.8909,2.8909,0,2.8947,2.8999,2.8932,2.8964,2.9018,2.8963,2.9019,2.9001,2.8988,2.9013,2.8952,2.8978,2.892,2.894,2.8907,2.8955,2.8959,2.8943,2.8934,2.8947,2.8949,2.8951,2.894,2.8914,2.8913,2.8912,2.8911,0,2.9123,2.908,2.913,2.9096,2.9089,2.9131,2.9102,2.9129,2.9101,2.9134,2.9139,2.9096,2.9115,2.9073,2.9089,2.9066,2.9133,2.9111,2.9135,2.9128,2.9187,2.9181,2.9392,2.9416,2.9216,2.9218,2.922,0,2.9225,2.9262,2.9231,2.9242,2.9234,2.9254,2.9261,2.9208,2.9217,2.9206,2.9234,2.9248,2.9256,2.9291,2.9261,2.9271,2.9248,2.9321,2.9249,2.926,2.9245,2.9242,2.9244,2.9335,2.9338,2.934,2.9342,0,2.9409,2.9385,2.9396,2.94,2.9409,2.941,2.9406,2.942,2.9363,2.9377,2.9394,2.94,2.9413,2.9427,2.943,2.9419,2.937,2.9365,2.9378,2.9391,2.9402,2.9393,2.9173,2.936,2.9358,2.9356,2.9356,2.9355,2.9548,2.9576,2.9557,2.9571,2.9562,2.9559,2.9582,2.9555,2.9569,2.9573,2.9541,2.9566,2.9552,2.955,2.9543,2.9561,2.9528,2.9549,2.9553,2.9558,2.9566,2.9401,2.9562,2.9562,2.9561,2.9561,2.956,0,2.9726,2.9709,2.9723,2.9718,2.9728,2.968,2.9673,2.9685,2.9706,2.9697,2.9704,2.9723,2.9736,2.9706,2.9714,2.9734,2.9712,2.9737,2.9734,2.9732,2.9597,2.9583,2.9755,2.9755,2.9755,2.9755,2.9755,2.9755,2.982,2.9863,2.9837,2.9875,2.9858,2.9879,2.9879,2.9875,2.9866,2.989,2.9899,2.9879,2.986,2.9866,2.9874,2.9865,2.987,2.9903,2.9886,2.9761,2.9742,2.9724,2.971,2.9905,2.9905,3.0018,3.0019,3.002]},{"header":{"parameterUnit":"m.s-1","parameterCategory":1,"la1":30.2991,"la2":30.254,"lo1":-89.0895,"lo2":-89.0444,"dy":0.0017,"dx":0.0017,"nx":28,"ny":28,"refTime":"2023-07-18T09:00:00:Z","depth":0,"parameterNumber":3,"parameterNumberName":"V-component_of_WINDS"},"data":[0,0,0,0,0,0,0,0,0,0,0,0,0,0,0,0,0,0,0,0,0,0,0,0,0,0,0,0,0,0,0,0,0,0,0,0,0,0,0,0,0,0,0,0,0,0,0,0,0,0,0,0,0,0,0,0,0,0,3.6286,3.6288,0,3.6444,3.6446,3.6447,3.6446,3.6444,3.6442,3.644,3.6596,3.6602,3.6608,0,0,0,0,0,0,0,0,0,0,0,0,0,3.5979,3.5984,3.6286,3.6288,3.629,3.6444,3.6446,3.6448,3.6446,3.6444,3.6441,3.6439,3.6594,3.6602,3.6609,0,0,0,0,0,0,0,0,0,0,0,0,0,3.6122,3.5986,3.6286,3.6308,3.6311,3.6443,3.6446,3.6448,3.6447,3.6443,3.644,3.6437,3.6592,3.6601,3.661,3.6729,0,0,3.6638,3.6642,0,0,0,0,0,0,0,0,3.6114,3.6133,3.6303,3.6307,3.6311,3.6422,3.6395,3.6542,3.6447,3.6395,3.644,3.6436,3.6541,3.6554,3.659,3.6736,3.6743,3.6639,3.6644,3.6648,3.6651,0,0,0,0,0,0,0,3.6104,3.6126,3.6348,3.6305,3.631,3.6308,3.6325,3.6423,3.6483,3.6399,3.64,3.6419,3.6542,3.6581,3.6594,3.6745,3.6638,3.6647,3.6652,3.6656,3.6995,3.6998,0,0,0,0,0,0,3.609,3.6118,3.6343,3.6353,3.6203,3.6316,3.6335,3.6389,3.6482,3.6493,3.6421,3.6418,3.6567,3.6583,3.6599,3.6744,3.6648,3.6657,3.6662,3.6991,3.6996,3.6999,0,0,0,0,0,0,3.6083,3.611,3.6337,3.6236,3.6265,3.6325,3.6386,3.6394,3.6433,3.6499,3.6509,3.645,3.6565,3.6586,3.6697,3.6749,3.6661,3.6669,3.6987,3.6993,3.6997,3.7034,0,0,0,0,0,0,3.6075,3.6108,3.6155,3.6237,3.627,3.6434,3.6389,3.6399,3.645,3.6447,3.6529,3.6539,3.6564,3.6683,3.6706,3.676,3.6676,3.6983,3.699,3.6996,3.7028,3.704,3.705,0,0,0,0,0,3.6064,3.6158,3.6157,3.6184,3.633,3.6437,3.6455,3.6484,3.6454,3.6501,3.6543,3.6537,3.674,3.6694,3.672,3.6778,3.698,3.6988,3.6995,3.7023,3.7037,3.7049,0,0,0,0,0,0,3.6079,3.6169,3.6169,3.6294,3.6358,3.6436,3.6496,3.6498,3.6571,3.6565,3.6596,3.6614,3.6724,3.6762,3.671,3.6897,3.6856,3.6869,3.6868,3.6882,3.6893,3.6881,3.6684,0,0,0,0,0,3.6097,3.6178,3.6251,3.6354,3.6386,3.6436,3.6483,3.6499,3.6566,3.6593,3.6643,3.6707,3.6785,3.6835,3.6911,3.7034,3.705,3.7086,3.7096,3.7105,3.7116,3.7182,3.7199,3.7025,3.7025,3.7025,0,0,3.6135,3.6194,3.6243,3.6358,3.641,3.6491,3.6458,3.6546,3.6605,3.6606,3.6713,3.6752,3.6825,3.6942,3.6995,3.6977,3.7168,3.7115,3.7121,3.7128,3.7192,3.7208,3.7223,3.7031,3.703,3.7029,0,0,3.6246,3.6299,3.639,3.6442,3.6521,3.6553,3.6575,3.6654,3.668,3.6788,3.679,3.686,3.6995,3.7046,3.709,3.7219,3.7216,3.7243,3.7298,3.7363,3.7376,3.7388,3.7433,3.7449,3.7253,3.7254,3.7254,0,3.6282,3.6406,3.6436,3.6524,3.6573,3.6579,3.667,3.6719,3.6817,3.6851,3.6829,3.6997,3.7046,3.7175,3.7206,3.7242,3.7266,3.7233,3.7372,3.7385,3.7396,3.744,3.7457,3.7256,3.7256,3.7256,3.7255,0,3.6447,3.6532,3.6595,3.6692,3.6749,3.6838,3.688,3.6934,3.6945,3.6979,3.7088,3.7148,3.7235,3.7267,3.7278,3.7396,3.7382,3.7366,3.7325,3.7415,3.7456,3.7473,3.726,3.7259,3.7258,3.7258,0,0,3.6572,3.6683,3.6706,3.675,3.6837,3.6902,3.699,3.7077,3.7122,3.719,3.7264,3.7377,3.7362,3.7412,3.7429,3.7485,3.7582,3.7462,3.7464,3.7481,3.7715,3.7726,3.7745,3.7581,3.7584,3.7586,3.7708,0,3.669,3.6849,3.6878,3.7016,3.7094,3.71,3.7176,3.7237,3.7271,3.7341,3.7377,3.7457,3.7432,3.7462,3.7518,3.7558,3.7629,3.755,3.7648,3.7651,3.7629,3.7767,3.778,3.7892,3.7725,3.7728,3.773,0,3.6851,3.6924,3.7069,3.7145,3.7179,3.7248,3.7329,3.7396,3.7464,3.7485,3.754,3.7551,3.764,3.7596,3.7719,3.7664,3.7706,3.7732,3.7737,3.7746,3.7695,3.778,3.7929,3.7945,3.7755,3.7753,3.7751,0,3.6926,3.706,3.7165,3.7202,3.7293,3.7341,3.7381,3.7446,3.7496,3.7566,3.7599,3.7678,3.7721,3.7782,3.7812,3.7777,3.7933,3.7891,3.7951,3.7951,3.7984,3.7981,3.8141,3.8011,3.8011,3.8011,3.801,0,3.7056,3.7144,3.72,3.7264,3.7363,3.7395,3.7491,3.753,3.7588,3.7658,3.7667,3.7733,3.777,3.784,3.7864,3.7962,3.7982,3.7999,3.8005,3.7999,3.7996,3.8026,3.8019,3.8015,3.8014,3.8013,3.8013,0,3.7156,3.7198,3.7312,3.7389,3.741,3.748,3.7545,3.7606,3.764,3.7729,3.7751,3.7803,3.7887,3.7923,3.8026,3.8042,3.8153,3.8153,3.8131,3.8132,3.819,3.8184,3.8374,3.84,3.8254,3.8255,3.8256,0,3.7236,3.7305,3.7389,3.7438,3.7479,3.7557,3.7609,3.7642,3.7694,3.7777,3.7828,3.7912,3.7981,3.8113,3.8159,3.8237,3.8238,3.8299,3.825,3.8241,3.8238,3.8234,3.824,3.8308,3.831,3.8311,3.8312,0,3.7373,3.739,3.7464,3.7546,3.7607,3.7672,3.7736,3.7775,3.7817,3.7876,3.7962,3.8015,3.812,3.8203,3.8283,3.8322,3.8324,3.8327,3.8345,3.8339,3.8323,3.8332,3.8155,3.8323,3.8321,3.8321,3.832,3.832,3.7465,3.7526,3.7595,3.7677,3.7729,3.7788,3.785,3.7891,3.7964,3.8053,3.8068,3.8159,3.8224,3.8333,3.8375,3.8446,3.843,3.8457,3.8463,3.8469,3.8472,3.8312,3.846,3.846,3.846,3.846,3.8459,0,3.7602,3.7646,3.7722,3.7811,3.7876,3.7873,3.7943,3.7996,3.8077,3.8139,3.8207,3.8305,3.8385,3.8437,3.8517,3.8564,3.8566,3.8583,3.858,3.8589,3.8481,3.8458,3.858,3.858,3.858,3.858,3.858,3.858,3.768,3.7783,3.7808,3.7935,3.7979,3.807,3.811,3.8164,3.8213,3.8323,3.839,3.8424,3.8481,3.8566,3.8638,3.8651,3.868,3.8698,3.871,3.8609,3.8596,3.8584,3.8562,3.8704,3.8705,3.8812,3.8813,3.8813]}]]